Regional Weather Roundup
Issued by NWS Glasgow, MT

Home | Current Version | Previous Version | Text Only | Print | Product List | Glossary On
Versions: 1 2 3 4 5 6 7 8 9 10 11 12 13 14 15 16 17 18 19 20 21 22 23 24 25 26 27 28
000
ASUS45 KGGW 241515
RWRGGW
HOURLY REGIONAL WEATHER ROUNDUP FOR NORTHEAST MONTANA
NATIONAL WEATHER SERVICE GLASGOW MONTANA
900 AM MDT SUN JUL 24 2016

NOTE: "FAIR" INDICATES FEW OR NO CLOUDS BELOW 12,000 FEET WITH NO
SIGNIFICANT WEATHER AND/OR OBSTRUCTIONS TO VISISBILITY.

NORTHEAST MONTANA


CITY           SKY/WX    TMP DP  RH WIND       PRES   REMARKS
GLASGOW        SUNNY     69  54  58 S5        30.05S
PLENTYWOOD       N/A     68  50  52 NW5         N/A
WOLF POINT     SUNNY     70  52  52 CALM      30.06S
JORDAN           N/A     73  52  47 CALM      30.07S
WINNETT          N/A     75  41  29 W2          N/A
SIDNEY         SUNNY     69  58  67 S6        30.06S
GLENDIVE       SUNNY     71  54  54 S6        30.09S
MALTA            N/A     70  59  68 W2          N/A
SCOBEY           N/A     73  55  53 CALM      30.05R
OPHEIM           N/A     68  54  60 W2        29.83R

FORT PECK REPORTS


CITY           SKY/WX    TMP DP  RH WIND       PRES   REMARKS
FORT PECK        N/A     70  56  61 SE5         N/A
THE PINES        N/A     71  53  52 S3          N/A

SOUTHEAST MONTANA


CITY           SKY/WX    TMP DP  RH WIND       PRES   REMARKS
BILLINGS       SUNNY     65  48  54 S7        30.13S
MILES CITY     SUNNY     72  49  44 SE8       30.09R
BAKER          SUNNY     72  48  42 S6        30.13R
LIVINGSTON     SUNNY     64  41  42 NW8       30.19S

CENTRAL MONTANA


CITY           SKY/WX    TMP DP  RH WIND       PRES   REMARKS
HAVRE          SUNNY     67  48  50 MISG      30.07R
LEWISTOWN      SUNNY     67  45  45 CALM      30.15S
GREAT FALLS    SUNNY     66  39  37 SW7       30.13R
CUT BANK       SUNNY     68  44  42 W10       30.12S
HELENA         SUNNY     64  40  41 CALM      30.17S
BUTTE          SUNNY     56  38  50 CALM      30.26S
BOZEMAN        SUNNY     62  40  44 CALM      30.21S

WESTERN MONTANA


CITY           SKY/WX    TMP DP  RH WIND       PRES   REMARKS
MISSOULA       SUNNY     60  45  57 E3        30.20S
KALISPELL      NOT AVBL

NORTH DAKOTA


CITY           SKY/WX    TMP DP  RH WIND       PRES   REMARKS
WILLISTON      SUNNY     71  54  54 W8        30.05R
DICKINSON      SUNNY     70  52  52 W9        30.08R
MINOT          SUNNY     74  55  51 W17       29.98R
BISMARCK       SUNNY     73  58  59 W8        30.04R

SOUTHERN SASKATCHEWAN


CITY           SKY/WX    TMP DP  RH WIND       PRES   REMARKS
REGINA         MOSUNNY   66  57  72 W12       30.02R
ESTEVAN        MOSUNNY   68  57  68 W12       30.00S
SWIFT CURRENT  CLOUDY    66  59  77 CALM      30.03S





USA.gov is the U.S. government's official web portal to all federal, state and local government web resources and services.